Time,TemperatureF,DewpointF,PressureIn,WindDirection,WindDirectionDegrees,WindSpeedMPH,WindSpeedGustMPH,Humidity,HourlyPrecipIn,Conditions,Clouds,dailyrainin,SoftwareType,DateUTC
2013-06-29 00:01:00,81.3,75.7,29.86,SSW,207,2.0,5.0,83,0.00,,,0.00,meteohub,2013-06-29 04:01:00,
2013-06-29 00:02:00,81.3,75.7,29.86,SSW,207,0.0,5.0,83,0.00,,,0.00,meteohub,2013-06-29 04:02:00,
2013-06-29 00:07:00,81.1,75.6,29.86,SSW,207,1.0,4.0,83,0.00,,,0.00,meteohub,2013-06-29 04:07:00,
2013-06-29 00:12:00,81.1,75.6,29.86,SSW,207,0.0,3.0,83,0.00,,,0.00,meteohub,2013-06-29 04:12:00,
2013-06-29 00:17:00,81.1,75.6,29.86,SSW,207,3.0,4.0,83,0.00,,,0.00,meteohub,2013-06-29 04:17:00,
2013-06-29 00:22:00,81.3,75.4,29.86,SSW,193,1.0,6.0,82,0.00,,,0.00,meteohub,2013-06-29 04:22:00,
2013-06-29 00:27:00,81.3,75.4,29.86,SSW,196,1.0,6.0,82,0.00,,,0.00,meteohub,2013-06-29 04:27:00,
2013-06-29 00:32:00,81.3,75.4,29.85,SSW,197,0.0,6.0,82,0.00,,,0.00,meteohub,2013-06-29 04:32:00,
2013-06-29 00:37:00,81.3,75.4,29.85,SSW,196,2.0,4.0,82,0.00,,,0.00,meteohub,2013-06-29 04:37:00,
2013-06-29 00:42:00,81.3,75.4,29.85,SSW,202,0.0,6.0,82,0.00,,,0.00,meteohub,2013-06-29 04:42:00,
2013-06-29 00:47:00,81.3,75.4,29.85,SSW,194,4.0,6.0,82,0.00,,,0.00,meteohub,2013-06-29 04:47:00,
2013-06-29 00:52:00,81.3,74.8,29.85,South,191,1.0,6.0,81,0.00,,,0.00,meteohub,2013-06-29 04:52:00,
2013-06-29 00:57:00,81.3,74.5,29.85,South,180,3.0,5.0,80,0.00,,,0.00,meteohub,2013-06-29 04:57:00,
2013-06-29 01:02:00,81.5,74.7,29.84,SSW,206,0.0,7.0,80,0.00,,,0.00,meteohub,2013-06-29 05:02:00,
2013-06-29 01:07:00,81.5,74.7,29.84,SSW,212,4.0,7.0,80,0.00,,,0.00,meteohub,2013-06-29 05:07:00,
2013-06-29 01:12:00,81.5,74.7,29.84,SSW,198,0.0,7.0,80,0.00,,,0.00,meteohub,2013-06-29 05:12:00,
2013-06-29 01:17:00,81.3,74.8,29.84,SSW,205,1.0,6.0,81,0.00,,,0.00,meteohub,2013-06-29 05:17:00,
2013-06-29 01:22:00,81.3,74.8,29.84,SW,217,1.0,8.0,81,0.00,,,0.00,meteohub,2013-06-29 05:22:00,
2013-06-29 01:27:00,81.3,74.8,29.83,SSW,197,2.0,8.0,81,0.00,,,0.00,meteohub,2013-06-29 05:27:00,
2013-06-29 01:32:00,81.3,74.5,29.83,South,178,5.0,8.0,80,0.00,,,0.00,meteohub,2013-06-29 05:32:00,
2013-06-29 01:37:00,81.3,74.8,29.83,South,177,4.0,9.0,81,0.00,,,0.00,meteohub,2013-06-29 05:37:00,
2013-06-29 01:42:00,81.1,74.7,29.82,SW,229,3.0,9.0,81,0.00,,,0.00,meteohub,2013-06-29 05:42:00,
2013-06-29 01:47:00,81.1,74.7,29.82,SSW,197,2.0,9.0,81,0.00,,,0.00,meteohub,2013-06-29 05:47:00,
2013-06-29 01:52:00,81.0,74.7,29.82,SSW,196,2.0,6.0,81,0.00,,,0.00,meteohub,2013-06-29 05:52:00,
2013-06-29 01:57:00,81.0,75.0,29.82,SSW,196,5.0,6.0,82,0.00,,,0.00,meteohub,2013-06-29 05:57:00,
2013-06-29 02:02:00,81.0,75.0,29.82,SW,214,3.0,7.0,82,0.00,,,0.00,meteohub,2013-06-29 06:02:00,
2013-06-29 02:07:00,80.8,74.8,29.82,South,178,3.0,7.0,82,0.00,,,0.00,meteohub,2013-06-29 06:07:00,
2013-06-29 02:12:00,80.8,74.8,29.82,SW,220,2.0,7.0,82,0.00,,,0.00,meteohub,2013-06-29 06:12:00,
2013-06-29 02:17:00,80.8,74.5,29.82,SW,217,5.0,7.0,81,0.00,,,0.00,meteohub,2013-06-29 06:17:00,
2013-06-29 02:22:00,80.8,74.5,29.82,SSW,198,0.0,7.0,81,0.00,,,0.00,meteohub,2013-06-29 06:22:00,
2013-06-29 02:27:00,80.8,74.5,29.81,SSW,192,4.0,7.0,81,0.00,,,0.00,meteohub,2013-06-29 06:27:00,
2013-06-29 02:32:00,80.8,74.5,29.81,SSW,206,3.0,6.0,81,0.00,,,0.00,meteohub,2013-06-29 06:32:00,
2013-06-29 02:37:00,80.8,74.8,29.81,SSW,193,6.0,6.0,82,0.00,,,0.00,meteohub,2013-06-29 06:37:00,
2013-06-29 02:42:00,80.8,74.8,29.81,South,172,5.0,7.0,82,0.00,,,0.00,meteohub,2013-06-29 06:42:00,
2013-06-29 02:47:00,80.8,74.8,29.81,SW,221,3.0,7.0,82,0.00,,,0.00,meteohub,2013-06-29 06:47:00,
2013-06-29 02:52:00,80.8,74.8,29.81,SW,219,4.0,7.0,82,0.00,,,0.00,meteohub,2013-06-29 06:52:00,
2013-06-29 02:57:00,80.8,74.8,29.81,SSW,209,2.0,7.0,82,0.00,,,0.00,meteohub,2013-06-29 06:57:00,
2013-06-29 03:02:00,80.8,74.8,29.81,SSW,193,1.0,7.0,82,0.00,,,0.00,meteohub,2013-06-29 07:02:00,
2013-06-29 03:07:00,80.8,74.8,29.81,South,190,2.0,7.0,82,0.00,,,0.00,meteohub,2013-06-29 07:07:00,
2013-06-29 03:12:00,80.8,75.2,29.81,SSW,197,0.0,6.0,83,0.00,,,0.00,meteohub,2013-06-29 07:12:00,
2013-06-29 03:17:00,80.8,74.8,29.81,SSW,211,5.0,6.0,82,0.00,,,0.00,meteohub,2013-06-29 07:17:00,
2013-06-29 03:22:00,80.8,74.8,29.82,South,181,3.0,5.0,82,0.00,,,0.00,meteohub,2013-06-29 07:22:00,
2013-06-29 03:27:00,81.0,74.7,29.82,SSW,208,5.0,7.0,81,0.00,,,0.00,meteohub,2013-06-29 07:27:00,
2013-06-29 03:32:00,81.0,74.7,29.82,SW,217,5.0,7.0,81,0.00,,,0.00,meteohub,2013-06-29 07:32:00,
2013-06-29 03:37:00,81.0,74.7,29.82,South,186,3.0,7.0,81,0.00,,,0.00,meteohub,2013-06-29 07:37:00,
2013-06-29 03:42:00,81.0,74.7,29.82,SSW,192,5.0,7.0,81,0.00,,,0.00,meteohub,2013-06-29 07:42:00,
2013-06-29 03:47:00,81.1,74.7,29.82,South,178,2.0,12.0,81,0.00,,,0.00,meteohub,2013-06-29 07:47:00,
2013-06-29 03:52:00,81.3,74.8,29.82,South,190,0.0,12.0,81,0.00,,,0.00,meteohub,2013-06-29 07:52:00,
2013-06-29 03:57:00,81.3,75.4,29.82,SW,219,5.0,12.0,82,0.00,,,0.00,meteohub,2013-06-29 07:57:00,
2013-06-29 04:02:00,81.3,75.4,29.82,South,179,5.0,11.0,82,0.00,,,0.00,meteohub,2013-06-29 08:02:00,
2013-06-29 04:07:00,81.3,75.4,29.82,South,175,2.0,9.0,82,0.00,,,0.00,meteohub,2013-06-29 08:07:00,
2013-06-29 04:12:00,81.1,74.7,29.82,SSE,167,1.0,9.0,81,0.00,,,0.00,meteohub,2013-06-29 08:12:00,
2013-06-29 04:17:00,81.1,75.2,29.82,SSW,209,6.0,9.0,82,0.00,,,0.00,meteohub,2013-06-29 08:17:00,
2013-06-29 04:22:00,81.1,74.7,29.82,South,186,3.0,9.0,81,0.00,,,0.00,meteohub,2013-06-29 08:22:00,
2013-06-29 04:27:00,81.1,74.7,29.82,SW,231,5.0,9.0,81,0.00,,,0.00,meteohub,2013-06-29 08:27:00,
2013-06-29 04:32:00,81.1,74.7,29.81,SSW,193,2.0,7.0,81,0.00,,,0.00,meteohub,2013-06-29 08:32:00,
2013-06-29 04:37:00,81.1,75.2,29.82,SW,221,5.0,8.0,82,0.00,,,0.00,meteohub,2013-06-29 08:37:00,
2013-06-29 04:42:00,81.0,75.0,29.82,SSE,166,2.0,8.0,82,0.00,,,0.00,meteohub,2013-06-29 08:42:00,
2013-06-29 04:47:00,81.0,75.4,29.82,SSW,193,5.0,8.0,83,0.00,,,0.00,meteohub,2013-06-29 08:47:00,
2013-06-29 04:52:00,81.0,75.0,29.82,SSW,208,3.0,7.0,82,0.00,,,0.00,meteohub,2013-06-29 08:52:00,
2013-06-29 04:57:00,81.1,75.2,29.82,SSW,193,2.0,9.0,82,0.00,,,0.00,meteohub,2013-06-29 08:57:00,
2013-06-29 05:02:00,81.1,74.7,29.83,SSW,202,2.0,9.0,81,0.00,,,0.00,meteohub,2013-06-29 09:02:00,
2013-06-29 05:07:00,81.1,74.3,29.82,SSW,192,4.0,9.0,80,0.00,,,0.00,meteohub,2013-06-29 09:07:00,
2013-06-29 05:12:00,81.1,74.7,29.82,SSE,165,4.0,9.0,81,0.00,,,0.00,meteohub,2013-06-29 09:12:00,
2013-06-29 05:17:00,81.1,74.7,29.82,SSW,207,1.0,9.0,81,0.00,,,0.00,meteohub,2013-06-29 09:17:00,
2013-06-29 05:22:00,81.1,74.7,29.82,SSW,198,2.0,9.0,81,0.00,,,0.00,meteohub,2013-06-29 09:22:00,
2013-06-29 05:27:00,81.1,74.7,29.82,SW,217,3.0,10.0,81,0.00,,,0.00,meteohub,2013-06-29 09:27:00,
2013-06-29 05:32:00,81.1,75.2,29.82,SW,221,3.0,10.0,82,0.00,,,0.00,meteohub,2013-06-29 09:32:00,
2013-06-29 05:37:00,81.1,75.2,29.82,SSW,205,5.0,9.0,82,0.00,,,0.00,meteohub,2013-06-29 09:37:00,
2013-06-29 05:42:00,81.1,75.2,29.82,South,177,5.0,9.0,82,0.00,,,0.00,meteohub,2013-06-29 09:42:00,
2013-06-29 05:47:00,81.1,74.7,29.82,SSW,196,3.0,7.0,81,0.00,,,0.00,meteohub,2013-06-29 09:47:00,
2013-06-29 05:52:00,81.1,74.7,29.81,SW,217,3.0,8.0,81,0.00,,,0.00,meteohub,2013-06-29 09:52:00,
2013-06-29 05:57:00,81.0,74.7,29.81,SSW,203,3.0,9.0,81,0.00,,,0.00,meteohub,2013-06-29 09:57:00,
2013-06-29 06:02:00,81.0,74.7,29.82,SW,227,4.0,9.0,81,0.00,,,0.00,meteohub,2013-06-29 10:02:00,
2013-06-29 06:07:00,81.0,75.0,29.82,SW,229,1.0,9.0,82,0.00,,,0.00,meteohub,2013-06-29 10:07:00,
2013-06-29 06:12:00,81.0,75.0,29.82,SSW,210,1.0,7.0,82,0.00,,,0.00,meteohub,2013-06-29 10:12:00,
2013-06-29 06:17:00,81.0,75.0,29.82,SW,219,2.0,7.0,82,0.00,,,0.00,meteohub,2013-06-29 10:17:00,
2013-06-29 06:22:00,81.0,75.0,29.82,SSW,212,4.0,10.0,82,0.00,,,0.00,meteohub,2013-06-29 10:22:00,
2013-06-29 06:27:00,81.0,75.0,29.82,SW,232,4.0,10.0,82,0.00,,,0.00,meteohub,2013-06-29 10:27:00,
2013-06-29 06:32:00,81.0,75.0,29.82,South,183,1.0,13.0,82,0.00,,,0.00,meteohub,2013-06-29 10:32:00,
2013-06-29 06:37:00,81.0,75.0,29.82,SW,217,3.0,13.0,82,0.00,,,0.00,meteohub,2013-06-29 10:37:00,
2013-06-29 06:42:00,81.0,75.4,29.82,SSW,200,4.0,10.0,83,0.00,,,0.00,meteohub,2013-06-29 10:42:00,
2013-06-29 06:47:00,81.0,75.4,29.82,South,175,4.0,10.0,83,0.00,,,0.00,meteohub,2013-06-29 10:47:00,
2013-06-29 06:52:00,81.0,75.4,29.82,SW,215,0.0,7.0,83,0.00,,,0.00,meteohub,2013-06-29 10:52:00,
2013-06-29 06:57:00,81.0,75.4,29.83,South,184,1.0,7.0,83,0.00,,,0.00,meteohub,2013-06-29 10:57:00,
2013-06-29 07:02:00,81.0,75.4,29.82,SSW,199,2.0,7.0,83,0.00,,,0.00,meteohub,2013-06-29 11:02:00,
2013-06-29 07:07:00,81.1,75.2,29.83,SSW,201,3.0,7.0,82,0.00,,,0.00,meteohub,2013-06-29 11:07:00,
2013-06-29 07:12:00,81.1,75.2,29.82,SW,227,3.0,7.0,82,0.00,,,0.00,meteohub,2013-06-29 11:12:00,
2013-06-29 07:17:00,81.3,74.8,29.82,SSW,210,4.0,8.0,81,0.00,,,0.00,meteohub,2013-06-29 11:17:00,
2013-06-29 07:22:00,81.7,74.8,29.82,SW,231,0.0,11.0,80,0.00,,,0.00,meteohub,2013-06-29 11:22:00,
2013-06-29 07:27:00,81.9,75.0,29.82,SSW,205,2.0,11.0,80,0.00,,,0.00,meteohub,2013-06-29 11:27:00,
2013-06-29 07:32:00,82.0,75.2,29.82,SW,226,4.0,11.0,80,0.00,,,0.00,meteohub,2013-06-29 11:32:00,
2013-06-29 07:37:00,81.9,74.7,29.83,SSE,162,0.0,9.0,79,0.00,,,0.00,meteohub,2013-06-29 11:37:00,
2013-06-29 07:42:00,82.0,74.8,29.83,WSW,240,1.0,9.0,79,0.00,,,0.00,meteohub,2013-06-29 11:42:00,
2013-06-29 07:47:00,82.2,75.4,29.83,SSW,204,5.0,9.0,80,0.00,,,0.00,meteohub,2013-06-29 11:47:00,
2013-06-29 07:52:00,82.6,75.7,29.83,SW,225,3.0,14.0,80,0.00,,,0.00,meteohub,2013-06-29 11:52:00,
2013-06-29 07:57:00,82.6,75.7,29.83,SW,235,7.0,14.0,80,0.00,,,0.00,meteohub,2013-06-29 11:57:00,
2013-06-29 08:02:00,82.6,75.4,29.83,WNW,297,3.0,14.0,79,0.00,,,0.00,meteohub,2013-06-29 12:02:00,
2013-06-29 08:07:00,82.8,75.2,29.83,South,175,2.0,9.0,78,0.00,,,0.00,meteohub,2013-06-29 12:07:00,
2013-06-29 08:12:00,82.9,75.7,29.83,SW,218,6.0,10.0,79,0.00,,,0.00,meteohub,2013-06-29 12:12:00,
2013-06-29 08:17:00,83.1,75.6,29.83,WNW,301,3.0,15.0,78,0.00,,,0.00,meteohub,2013-06-29 12:17:00,
2013-06-29 08:22:00,83.1,75.2,29.83,West,275,5.0,15.0,77,0.00,,,0.00,meteohub,2013-06-29 12:22:00,
2013-06-29 08:27:00,82.9,75.4,29.83,SSW,197,4.0,15.0,78,0.00,,,0.00,meteohub,2013-06-29 12:27:00,
2013-06-29 08:32:00,82.8,75.6,29.83,SSE,161,5.0,11.0,79,0.00,,,0.00,meteohub,2013-06-29 12:32:00,
2013-06-29 08:37:00,82.6,75.7,29.83,SSW,192,2.0,9.0,80,0.00,,,0.00,meteohub,2013-06-29 12:37:00,
2013-06-29 08:42:00,82.6,75.4,29.83,SW,219,11.0,11.0,79,0.00,,,0.00,meteohub,2013-06-29 12:42:00,
2013-06-29 08:47:00,82.2,75.0,29.83,SW,216,3.0,15.0,79,0.00,,,0.00,meteohub,2013-06-29 12:47:00,
2013-06-29 08:52:00,82.4,75.2,29.83,WSW,239,4.0,15.0,79,0.00,,,0.00,meteohub,2013-06-29 12:52:00,
2013-06-29 08:57:00,82.9,75.4,29.83,South,190,10.0,15.0,78,0.00,,,0.00,meteohub,2013-06-29 12:57:00,
2013-06-29 09:02:00,83.5,75.9,29.83,West,265,3.0,10.0,78,0.00,,,0.00,meteohub,2013-06-29 13:02:00,
2013-06-29 09:07:00,83.5,75.0,29.83,SSE,162,4.0,10.0,76,0.00,,,0.00,meteohub,2013-06-29 13:07:00,
2013-06-29 09:12:00,83.5,75.0,29.83,South,185,8.0,10.0,76,0.00,,,0.00,meteohub,2013-06-29 13:12:00,
2013-06-29 09:17:00,83.7,75.2,29.83,SSW,202,3.0,10.0,76,0.00,,,0.00,meteohub,2013-06-29 13:17:00,
2013-06-29 09:22:00,83.8,75.9,29.83,NW,317,1.0,9.0,77,0.00,,,0.00,meteohub,2013-06-29 13:22:00,
2013-06-29 09:27:00,84.2,75.7,29.84,SSW,209,4.0,9.0,76,0.00,,,0.00,meteohub,2013-06-29 13:27:00,
2013-06-29 09:32:00,83.8,73.8,29.84,SSE,153,3.0,10.0,72,0.00,,,0.00,meteohub,2013-06-29 13:32:00,
2013-06-29 09:37:00,82.9,72.5,29.84,SSW,197,7.0,10.0,71,0.00,,,0.00,meteohub,2013-06-29 13:37:00,
2013-06-29 09:42:00,82.6,73.0,29.83,WSW,246,3.0,10.0,73,0.00,,,0.00,meteohub,2013-06-29 13:42:00,
2013-06-29 09:47:00,82.2,73.9,29.83,South,182,4.0,10.0,76,0.00,,,0.00,meteohub,2013-06-29 13:47:00,
2013-06-29 09:52:00,82.2,73.9,29.83,SSW,192,5.0,10.0,76,0.00,,,0.00,meteohub,2013-06-29 13:52:00,
2013-06-29 09:57:00,81.0,73.0,29.84,South,184,3.0,12.0,77,0.00,,,0.00,meteohub,2013-06-29 13:57:00,
2013-06-29 10:02:00,79.2,72.5,29.84,SW,224,5.0,12.0,80,0.00,,,0.00,meteohub,2013-06-29 14:02:00,
2013-06-29 10:07:00,78.3,72.3,29.84,SW,214,4.0,12.0,82,0.00,,,0.00,meteohub,2013-06-29 14:07:00,
2013-06-29 10:12:00,78.3,73.8,29.84,WSW,254,2.0,9.0,86,0.00,,,0.00,meteohub,2013-06-29 14:12:00,
2013-06-29 10:17:00,78.3,74.1,29.83,SW,223,1.0,7.0,87,0.00,,,0.00,meteohub,2013-06-29 14:17:00,
2013-06-29 10:22:00,78.4,74.3,29.84,SSW,207,4.0,5.0,87,0.00,,,0.00,meteohub,2013-06-29 14:22:00,
2013-06-29 10:27:00,78.8,74.3,29.85,South,180,2.0,6.0,86,0.00,,,0.00,meteohub,2013-06-29 14:27:00,
2013-06-29 10:32:00,79.2,74.7,29.85,SW,219,3.0,9.0,86,0.00,,,0.00,meteohub,2013-06-29 14:32:00,
2013-06-29 10:37:00,79.5,75.0,29.85,South,184,4.0,9.0,86,0.00,,,0.00,meteohub,2013-06-29 14:37:00,
2013-06-29 10:42:00,79.7,74.8,29.85,SSE,167,2.0,12.0,85,0.00,,,0.00,meteohub,2013-06-29 14:42:00,
2013-06-29 10:47:00,80.2,75.4,29.85,SW,225,2.0,12.0,85,0.00,,,0.00,meteohub,2013-06-29 14:47:00,
2013-06-29 10:52:00,80.8,75.6,29.85,South,181,2.0,10.0,84,0.00,,,0.00,meteohub,2013-06-29 14:52:00,
2013-06-29 10:57:00,81.1,75.6,29.85,SSE,163,5.0,8.0,83,0.00,,,0.00,meteohub,2013-06-29 14:57:00,
2013-06-29 11:02:00,81.3,74.5,29.85,SSW,194,7.0,11.0,80,0.00,,,0.00,meteohub,2013-06-29 15:02:00,
2013-06-29 11:07:00,81.3,74.1,29.85,SSW,194,8.0,16.0,79,0.00,,,0.00,meteohub,2013-06-29 15:07:00,
2013-06-29 11:12:00,80.8,72.5,29.85,SSW,199,4.0,16.0,76,0.00,,,0.00,meteohub,2013-06-29 15:12:00,
2013-06-29 11:17:00,80.2,72.0,29.86,SW,230,8.0,16.0,76,0.00,,,0.00,meteohub,2013-06-29 15:17:00,
2013-06-29 11:23:00,77.9,71.6,29.86,SSW,210,4.0,16.0,81,0.00,,,0.00,meteohub,2013-06-29 15:23:00,
2013-06-29 11:28:00,76.3,71.8,29.87,South,175,3.0,16.0,86,0.00,,,0.00,meteohub,2013-06-29 15:28:00,
2013-06-29 11:33:00,75.4,72.0,29.86,South,187,3.0,16.0,89,0.00,,,0.00,meteohub,2013-06-29 15:33:00,
2013-06-29 11:38:00,75.4,72.5,29.86,SSW,196,1.0,10.0,91,0.00,,,0.00,meteohub,2013-06-29 15:38:00,
2013-06-29 11:43:00,75.4,72.9,29.86,South,183,1.0,7.0,92,0.00,,,0.00,meteohub,2013-06-29 15:43:00,
2013-06-29 11:48:00,75.7,73.6,29.86,South,183,0.0,5.0,93,0.00,,,0.00,meteohub,2013-06-29 15:48:00,
2013-06-29 11:53:00,76.3,74.7,29.86,South,183,0.0,5.0,95,0.00,,,0.00,meteohub,2013-06-29 15:53:00,
2013-06-29 11:58:00,76.8,75.2,29.86,South,184,0.0,4.0,95,0.00,,,0.00,meteohub,2013-06-29 15:58:00,
2013-06-29 12:03:00,77.0,75.2,29.86,South,184,0.0,1.0,94,0.00,,,0.00,meteohub,2013-06-29 16:03:00,
2013-06-29 12:08:00,77.2,75.6,29.86,South,184,0.0,1.0,95,0.00,,,0.00,meteohub,2013-06-29 16:08:00,
2013-06-29 12:13:00,77.2,75.4,29.86,South,184,0.0,1.0,94,0.00,,,0.00,meteohub,2013-06-29 16:13:00,
2013-06-29 12:18:00,77.0,75.2,29.86,South,184,0.0,1.0,94,0.00,,,0.00,meteohub,2013-06-29 16:18:00,
2013-06-29 12:24:00,77.0,74.8,29.86,South,184,4.0,4.0,93,0.00,,,0.00,meteohub,2013-06-29 16:24:00,
2013-06-29 12:29:00,76.8,73.9,29.86,West,277,0.0,4.0,91,0.00,,,0.00,meteohub,2013-06-29 16:29:00,
2013-06-29 12:34:00,77.2,74.3,29.85,West,277,0.0,4.0,91,0.00,,,0.00,meteohub,2013-06-29 16:34:00,
2013-06-29 12:39:00,77.4,74.1,29.85,West,277,0.0,5.0,90,0.00,,,0.00,meteohub,2013-06-29 16:39:00,
2013-06-29 12:44:00,77.7,74.8,29.85,West,277,0.0,5.0,91,0.00,,,0.00,meteohub,2013-06-29 16:44:00,
2013-06-29 12:49:00,78.1,75.2,29.84,West,277,0.0,1.0,91,0.00,,,0.00,meteohub,2013-06-29 16:49:00,
2013-06-29 12:54:00,78.3,75.0,29.84,West,277,0.0,1.0,90,0.00,,,0.00,meteohub,2013-06-29 16:54:00,
2013-06-29 12:59:00,78.1,73.9,29.84,West,277,2.0,2.0,87,0.00,,,0.00,meteohub,2013-06-29 16:59:00,
2013-06-29 13:04:00,78.1,73.9,29.84,West,277,0.0,2.0,87,0.00,,,0.00,meteohub,2013-06-29 17:04:00,
2013-06-29 13:09:00,78.3,74.7,29.84,West,277,3.0,4.0,89,0.00,,,0.00,meteohub,2013-06-29 17:09:00,
2013-06-29 13:14:00,78.4,75.2,29.83,WSW,252,2.0,4.0,90,0.00,,,0.00,meteohub,2013-06-29 17:14:00,
2013-06-29 13:19:00,78.4,74.8,29.83,South,171,0.0,4.0,89,0.00,,,0.00,meteohub,2013-06-29 17:19:00,
2013-06-29 13:24:00,78.6,75.4,29.83,South,183,1.0,5.0,90,0.00,,,0.00,meteohub,2013-06-29 17:24:00,
2013-06-29 13:29:00,79.5,77.4,29.83,SW,229,1.0,5.0,93,0.00,,,0.00,meteohub,2013-06-29 17:29:00,
2013-06-29 13:35:00,80.1,77.2,29.83,SW,234,4.0,5.0,91,0.00,,,0.00,meteohub,2013-06-29 17:35:00,
2013-06-29 13:40:00,81.0,78.4,29.83,West,279,0.0,5.0,92,0.00,,,0.00,meteohub,2013-06-29 17:40:00,
2013-06-29 13:45:00,81.3,78.1,29.83,South,184,2.0,4.0,90,0.00,,,0.00,meteohub,2013-06-29 17:45:00,
2013-06-29 13:50:00,81.3,77.4,29.83,SW,221,2.0,4.0,88,0.00,,,0.00,meteohub,2013-06-29 17:50:00,
2013-06-29 13:55:00,81.5,76.8,29.83,SW,217,2.0,8.0,86,0.00,,,0.00,meteohub,2013-06-29 17:55:00,
2013-06-29 14:00:00,82.0,77.7,29.83,SW,218,4.0,9.0,87,0.00,,,0.00,meteohub,2013-06-29 18:00:00,
2013-06-29 14:05:00,82.2,76.8,29.84,South,181,1.0,9.0,84,0.00,,,0.00,meteohub,2013-06-29 18:05:00,
2013-06-29 14:10:00,82.2,76.5,29.84,SW,225,2.0,9.0,83,0.00,,,0.00,meteohub,2013-06-29 18:10:00,
2013-06-29 14:15:00,82.8,76.6,29.83,SW,218,0.0,6.0,82,0.00,,,0.00,meteohub,2013-06-29 18:15:00,
2013-06-29 14:20:00,82.6,74.3,29.84,WNW,297,7.0,7.0,76,0.00,,,0.00,meteohub,2013-06-29 18:20:00,
2013-06-29 14:25:00,80.1,72.5,29.85,NNW,332,6.0,15.0,78,0.00,,,0.00,meteohub,2013-06-29 18:25:00,
2013-06-29 14:30:00,77.4,72.1,29.84,West,270,2.0,15.0,84,0.00,,,0.00,meteohub,2013-06-29 18:30:00,
2013-06-29 14:35:00,76.3,72.5,29.84,NW,323,2.0,13.0,88,0.00,,,0.00,meteohub,2013-06-29 18:35:00,
2013-06-29 14:40:00,75.7,72.3,29.83,NW,318,1.0,8.0,89,0.00,,,0.00,meteohub,2013-06-29 18:40:00,
2013-06-29 14:45:00,75.9,73.0,29.83,NW,319,0.0,4.0,91,0.00,,,0.00,meteohub,2013-06-29 18:45:00,
2013-06-29 14:51:00,76.1,73.2,29.83,NW,319,0.0,4.0,91,0.00,,,0.00,meteohub,2013-06-29 18:51:00,
2013-06-29 14:56:00,76.5,73.9,29.83,NW,319,0.0,2.0,92,0.00,,,0.00,meteohub,2013-06-29 18:56:00,
2013-06-29 15:01:00,76.5,73.2,29.83,NW,319,1.0,2.0,90,0.00,,,0.00,meteohub,2013-06-29 19:01:00,
2013-06-29 15:06:00,76.6,73.4,29.83,NW,317,1.0,3.0,90,0.00,,,0.00,meteohub,2013-06-29 19:06:00,
2013-06-29 15:11:00,77.2,74.3,29.83,NW,317,1.0,3.0,91,0.00,,,0.00,meteohub,2013-06-29 19:11:00,
2013-06-29 15:16:00,77.7,74.8,29.82,SSW,197,6.0,6.0,91,0.00,,,0.00,meteohub,2013-06-29 19:16:00,
2013-06-29 15:21:00,78.1,74.5,29.82,WNW,287,3.0,7.0,89,0.00,,,0.00,meteohub,2013-06-29 19:21:00,
2013-06-29 15:26:00,78.3,74.5,29.82,West,273,1.0,7.0,88,0.00,,,0.00,meteohub,2013-06-29 19:26:00,
2013-06-29 15:31:00,78.3,74.1,29.82,West,273,0.0,6.0,87,0.00,,,0.00,meteohub,2013-06-29 19:31:00,
2013-06-29 15:36:00,78.4,73.2,29.82,West,273,1.0,5.0,84,0.00,,,0.00,meteohub,2013-06-29 19:36:00,
2013-06-29 15:41:00,78.6,73.0,29.82,WNW,297,3.0,3.0,83,0.00,,,0.00,meteohub,2013-06-29 19:41:00,
2013-06-29 15:46:00,79.3,74.5,29.82,WNW,282,10.0,10.0,85,0.00,,,0.00,meteohub,2013-06-29 19:46:00,
2013-06-29 15:51:00,79.2,75.4,29.82,NNW,347,7.0,13.0,88,0.00,,,0.00,meteohub,2013-06-29 19:51:00,
2013-06-29 15:56:00,79.0,75.2,29.81,NNW,327,5.0,13.0,88,0.00,,,0.00,meteohub,2013-06-29 19:56:00,
2013-06-29 16:02:00,79.0,75.2,29.81,WNW,286,2.0,13.0,88,0.00,,,0.00,meteohub,2013-06-29 20:02:00,
2013-06-29 16:07:00,79.2,75.4,29.81,NNW,331,4.0,12.0,88,0.00,,,0.00,meteohub,2013-06-29 20:07:00,
2013-06-29 16:12:00,79.3,75.6,29.80,NNW,327,2.0,9.0,88,0.00,,,0.00,meteohub,2013-06-29 20:12:00,
2013-06-29 16:17:00,79.5,75.4,29.80,NW,308,1.0,6.0,87,0.00,,,0.00,meteohub,2013-06-29 20:17:00,
2013-06-29 16:22:00,79.7,75.6,29.80,West,273,2.0,4.0,87,0.00,,,0.00,meteohub,2013-06-29 20:22:00,
2013-06-29 16:27:00,79.9,75.4,29.80,WNW,297,0.0,4.0,86,0.00,,,0.00,meteohub,2013-06-29 20:27:00,
2013-06-29 16:32:00,80.1,74.8,29.80,SSW,194,0.0,4.0,84,0.00,,,0.00,meteohub,2013-06-29 20:32:00,
2013-06-29 16:37:00,80.1,75.2,29.80,SSW,193,3.0,5.0,85,0.00,,,0.00,meteohub,2013-06-29 20:37:00,
2013-06-29 16:42:00,79.9,75.4,29.80,WSW,240,1.0,5.0,86,0.00,,,0.00,meteohub,2013-06-29 20:42:00,
2013-06-29 16:47:00,79.9,74.3,29.79,SSW,202,3.0,6.0,83,0.00,,,0.00,meteohub,2013-06-29 20:47:00,
2013-06-29 16:52:00,79.9,73.2,29.79,SW,217,3.0,7.0,80,0.00,,,0.00,meteohub,2013-06-29 20:52:00,
2013-06-29 16:57:00,79.9,73.2,29.79,South,176,0.0,7.0,80,0.00,,,0.00,meteohub,2013-06-29 20:57:00,
2013-06-29 17:02:00,80.1,73.4,29.79,SSW,205,5.0,7.0,80,0.00,,,0.00,meteohub,2013-06-29 21:02:00,
2013-06-29 17:07:00,80.1,73.4,29.79,SW,219,2.0,7.0,80,0.00,,,0.00,meteohub,2013-06-29 21:07:00,
2013-06-29 17:12:00,80.2,73.9,29.78,SW,236,2.0,6.0,81,0.00,,,0.00,meteohub,2013-06-29 21:12:00,
2013-06-29 17:17:00,80.4,74.1,29.78,West,279,1.0,8.0,81,0.00,,,0.00,meteohub,2013-06-29 21:17:00,
2013-06-29 17:22:00,80.8,73.9,29.78,SSW,200,1.0,8.0,80,0.00,,,0.00,meteohub,2013-06-29 21:22:00,
2013-06-29 17:27:00,81.1,74.7,29.78,SW,220,0.0,8.0,81,0.00,,,0.00,meteohub,2013-06-29 21:27:00,
2013-06-29 17:32:00,81.3,74.5,29.78,SW,229,5.0,5.0,80,0.00,,,0.00,meteohub,2013-06-29 21:32:00,
2013-06-29 17:37:00,81.3,74.5,29.78,SW,229,3.0,8.0,80,0.00,,,0.00,meteohub,2013-06-29 21:37:00,
2013-06-29 17:42:00,81.7,74.8,29.78,SW,215,2.0,8.0,80,0.00,,,0.00,meteohub,2013-06-29 21:42:00,
2013-06-29 17:47:00,81.9,75.0,29.78,WSW,249,2.0,8.0,80,0.00,,,0.00,meteohub,2013-06-29 21:47:00,
2013-06-29 17:52:00,82.0,75.2,29.79,SSW,213,2.0,6.0,80,0.00,,,0.00,meteohub,2013-06-29 21:52:00,
2013-06-29 17:57:00,81.7,74.8,29.79,South,190,1.0,5.0,80,0.00,,,0.00,meteohub,2013-06-29 21:57:00,
2013-06-29 18:02:00,81.5,74.7,29.79,SSW,200,0.0,6.0,80,0.00,,,0.00,meteohub,2013-06-29 22:02:00,
2013-06-29 18:07:00,81.5,74.7,29.79,South,189,0.0,6.0,80,0.00,,,0.00,meteohub,2013-06-29 22:07:00,
2013-06-29 18:12:00,81.3,74.8,29.79,WNW,303,2.0,7.0,81,0.00,,,0.00,meteohub,2013-06-29 22:12:00,
2013-06-29 18:17:00,81.3,74.8,29.79,WSW,253,0.0,7.0,81,0.00,,,0.00,meteohub,2013-06-29 22:17:00,
2013-06-29 18:22:00,81.5,75.4,29.79,SW,219,2.0,7.0,82,0.00,,,0.00,meteohub,2013-06-29 22:22:00,
2013-06-29 18:27:00,81.3,75.4,29.79,SW,225,3.0,7.0,82,0.00,,,0.00,meteohub,2013-06-29 22:27:00,
2013-06-29 18:32:00,81.1,75.2,29.79,South,181,2.0,7.0,82,0.00,,,0.00,meteohub,2013-06-29 22:32:00,
2013-06-29 18:37:00,81.7,75.6,29.78,WNW,288,2.0,8.0,82,0.00,,,0.00,meteohub,2013-06-29 22:37:00,
2013-06-29 18:42:00,82.4,75.6,29.78,WSW,237,0.0,8.0,80,0.00,,,0.00,meteohub,2013-06-29 22:42:00,
2013-06-29 18:47:00,82.8,75.9,29.79,SSE,161,3.0,8.0,80,0.00,,,0.00,meteohub,2013-06-29 22:47:00,
2013-06-29 18:52:00,82.8,75.2,29.78,WNW,298,4.0,5.0,78,0.00,,,0.00,meteohub,2013-06-29 22:52:00,
2013-06-29 18:57:00,82.8,74.8,29.79,West,261,2.0,6.0,77,0.00,,,0.00,meteohub,2013-06-29 22:57:00,
2013-06-29 19:02:00,82.8,74.8,29.79,WSW,246,2.0,7.0,77,0.00,,,0.00,meteohub,2013-06-29 23:02:00,
2013-06-29 19:07:00,82.8,74.8,29.79,South,186,2.0,7.0,77,0.00,,,0.00,meteohub,2013-06-29 23:07:00,
2013-06-29 19:12:00,82.6,75.4,29.78,South,175,1.0,7.0,79,0.00,,,0.00,meteohub,2013-06-29 23:12:00,
2013-06-29 19:17:00,82.6,75.4,29.78,SW,234,0.0,7.0,79,0.00,,,0.00,meteohub,2013-06-29 23:17:00,
2013-06-29 19:22:00,82.8,74.8,29.78,West,276,2.0,7.0,77,0.00,,,0.00,meteohub,2013-06-29 23:22:00,
2013-06-29 19:27:00,82.8,75.2,29.78,West,281,0.0,6.0,78,0.00,,,0.00,meteohub,2013-06-29 23:27:00,
2013-06-29 19:32:00,82.4,74.8,29.79,South,184,2.0,8.0,78,0.00,,,0.00,meteohub,2013-06-29 23:32:00,
2013-06-29 19:37:00,82.0,74.8,29.79,NW,309,1.0,8.0,79,0.00,,,0.00,meteohub,2013-06-29 23:37:00,
2013-06-29 19:42:00,81.7,74.5,29.79,West,265,2.0,8.0,79,0.00,,,0.00,meteohub,2013-06-29 23:42:00,
2013-06-29 19:47:00,81.3,74.8,29.79,SSW,211,0.0,5.0,81,0.00,,,0.00,meteohub,2013-06-29 23:47:00,
2013-06-29 19:52:00,81.0,75.0,29.79,SSW,203,1.0,6.0,82,0.00,,,0.00,meteohub,2013-06-29 23:52:00,
2013-06-29 19:57:00,80.8,75.2,29.79,SSW,203,0.0,7.0,83,0.00,,,0.00,meteohub,2013-06-29 23:57:00,
2013-06-29 20:02:00,80.4,74.8,29.79,SSW,203,0.0,7.0,83,0.00,,,0.00,meteohub,2013-06-30 00:02:00,
2013-06-29 20:07:00,80.4,74.5,29.79,SSW,203,0.0,5.0,82,0.00,,,0.00,meteohub,2013-06-30 00:07:00,
2013-06-29 20:12:00,80.2,74.3,29.79,SSW,203,1.0,4.0,82,0.00,,,0.00,meteohub,2013-06-30 00:12:00,
2013-06-29 20:17:00,80.2,74.3,29.79,SSW,200,1.0,4.0,82,0.00,,,0.00,meteohub,2013-06-30 00:17:00,
2013-06-29 20:22:00,80.1,74.1,29.80,SSW,200,2.0,6.0,82,0.00,,,0.00,meteohub,2013-06-30 00:22:00,
2013-06-29 20:27:00,79.9,73.9,29.80,SSW,200,2.0,6.0,82,0.00,,,0.00,meteohub,2013-06-30 00:27:00,
2013-06-29 20:32:00,79.7,73.8,29.80,SSW,200,3.0,6.0,82,0.00,,,0.00,meteohub,2013-06-30 00:32:00,
2013-06-29 20:37:00,79.5,73.6,29.80,SSW,200,1.0,3.0,82,0.00,,,0.00,meteohub,2013-06-30 00:37:00,
2013-06-29 20:42:00,79.5,73.9,29.80,SSW,200,2.0,3.0,83,0.00,,,0.00,meteohub,2013-06-30 00:42:00,
2013-06-29 20:47:00,79.5,73.9,29.80,SSW,200,1.0,4.0,83,0.00,,,0.00,meteohub,2013-06-30 00:47:00,
2013-06-29 20:52:00,79.3,74.1,29.80,SSW,200,1.0,4.0,84,0.00,,,0.00,meteohub,2013-06-30 00:52:00,
2013-06-29 20:57:00,79.3,74.1,29.80,SSW,200,2.0,4.0,84,0.00,,,0.00,meteohub,2013-06-30 00:57:00,
2013-06-29 21:02:00,79.2,74.3,29.80,SSW,200,2.0,3.0,85,0.00,,,0.00,meteohub,2013-06-30 01:02:00,
2013-06-29 21:07:00,79.2,74.3,29.80,SSW,200,2.0,4.0,85,0.00,,,0.00,meteohub,2013-06-30 01:07:00,
2013-06-29 21:12:00,79.2,74.3,29.80,SSW,200,3.0,4.0,85,0.00,,,0.00,meteohub,2013-06-30 01:12:00,
2013-06-29 21:17:00,79.2,74.7,29.81,SSW,200,0.0,3.0,86,0.00,,,0.00,meteohub,2013-06-30 01:17:00,
2013-06-29 21:22:00,79.2,74.7,29.81,SSW,200,2.0,4.0,86,0.00,,,0.00,meteohub,2013-06-30 01:22:00,
2013-06-29 21:27:00,79.0,74.5,29.81,SSW,200,3.0,4.0,86,0.00,,,0.00,meteohub,2013-06-30 01:27:00,
2013-06-29 21:32:00,79.2,74.7,29.81,SSW,200,4.0,4.0,86,0.00,,,0.00,meteohub,2013-06-30 01:32:00,
2013-06-29 21:37:00,79.2,74.7,29.81,SSW,200,1.0,4.0,86,0.00,,,0.00,meteohub,2013-06-30 01:37:00,
2013-06-29 21:42:00,79.2,74.7,29.81,SSW,200,3.0,4.0,86,0.00,,,0.00,meteohub,2013-06-30 01:42:00,
2013-06-29 21:47:00,79.2,74.7,29.81,SSW,200,1.0,5.0,86,0.00,,,0.00,meteohub,2013-06-30 01:47:00,
2013-06-29 21:52:00,79.2,75.0,29.82,SSW,200,1.0,5.0,87,0.00,,,0.00,meteohub,2013-06-30 01:52:00,
2013-06-29 21:57:00,79.2,75.0,29.82,SSW,200,0.0,5.0,87,0.00,,,0.00,meteohub,2013-06-30 01:57:00,
2013-06-29 22:02:00,79.2,75.0,29.83,SSW,200,2.0,4.0,87,0.00,,,0.00,meteohub,2013-06-30 02:02:00,
2013-06-29 22:07:00,79.0,74.8,29.83,SSW,200,1.0,3.0,87,0.00,,,0.00,meteohub,2013-06-30 02:07:00,
2013-06-29 22:12:00,79.2,75.0,29.83,SSW,200,1.0,3.0,87,0.00,,,0.00,meteohub,2013-06-30 02:12:00,
2013-06-29 22:17:00,79.2,74.7,29.82,SSW,200,2.0,3.0,86,0.00,,,0.00,meteohub,2013-06-30 02:17:00,
2013-06-29 22:22:00,79.2,74.7,29.82,SSW,200,1.0,4.0,86,0.00,,,0.00,meteohub,2013-06-30 02:22:00,
2013-06-29 22:27:00,79.2,74.7,29.82,SSW,200,3.0,4.0,86,0.00,,,0.00,meteohub,2013-06-30 02:27:00,
2013-06-29 22:32:00,79.2,74.7,29.82,SSW,200,1.0,4.0,86,0.00,,,0.00,meteohub,2013-06-30 02:32:00,
2013-06-29 22:37:00,79.2,75.0,29.82,SSW,200,1.0,3.0,87,0.00,,,0.00,meteohub,2013-06-30 02:37:00,
2013-06-29 22:42:00,79.2,74.7,29.83,SSW,200,4.0,4.0,86,0.00,,,0.00,meteohub,2013-06-30 02:42:00,
2013-06-29 22:47:00,79.2,74.7,29.83,SSW,200,2.0,4.0,86,0.00,,,0.00,meteohub,2013-06-30 02:47:00,
2013-06-29 22:52:00,79.2,74.7,29.83,SSW,200,2.0,4.0,86,0.00,,,0.00,meteohub,2013-06-30 02:52:00,
2013-06-29 22:57:00,79.2,74.3,29.83,SSW,200,2.0,4.0,85,0.00,,,0.00,meteohub,2013-06-30 02:57:00,
2013-06-29 23:02:00,79.2,73.9,29.83,SSW,200,1.0,5.0,84,0.00,,,0.00,meteohub,2013-06-30 03:02:00,
2013-06-29 23:07:00,79.2,73.9,29.83,SSW,200,2.0,5.0,84,0.00,,,0.00,meteohub,2013-06-30 03:07:00,
2013-06-29 23:12:00,79.0,73.8,29.83,SSW,200,1.0,5.0,84,0.00,,,0.00,meteohub,2013-06-30 03:12:00,
2013-06-29 23:17:00,79.0,73.4,29.82,SSW,200,3.0,5.0,83,0.00,,,0.00,meteohub,2013-06-30 03:17:00,
2013-06-29 23:22:00,79.0,73.4,29.83,SSW,200,2.0,5.0,83,0.00,,,0.00,meteohub,2013-06-30 03:22:00,
2013-06-29 23:27:00,79.0,73.4,29.83,SSW,200,2.0,5.0,83,0.00,,,0.00,meteohub,2013-06-30 03:27:00,
2013-06-29 23:32:00,79.0,73.4,29.82,SSW,200,2.0,5.0,83,0.00,,,0.00,meteohub,2013-06-30 03:32:00,
2013-06-29 23:37:00,79.0,73.4,29.82,SSW,200,1.0,5.0,83,0.00,,,0.00,meteohub,2013-06-30 03:37:00,
2013-06-29 23:42:00,79.0,73.4,29.82,SSW,200,1.0,5.0,83,0.00,,,0.00,meteohub,2013-06-30 03:42:00,
2013-06-29 23:47:00,79.0,73.8,29.82,SSW,200,2.0,4.0,84,0.00,,,0.00,meteohub,2013-06-30 03:47:00,
2013-06-29 23:52:00,78.8,73.2,29.83,SSW,200,0.0,3.0,83,0.00,,,0.00,meteohub,2013-06-30 03:52:00,
2013-06-29 23:58:00,78.6,73.0,29.82,SSW,200,2.0,3.0,83,0.00,,,0.00,meteohub,2013-06-30 03:58:00,